Terminal Aerodrome Forecast
Issued by NWS

Home | Current Version | Previous Version | Text Only | Print | Product List | Glossary On
Versions: 1 2 3 4 5 6 7 8 9 10 11 12
000
FTUS43 KGLD 111120
TAFMCK
TAF
KMCK 111120Z 1112/1212 34014G20KT P6SM SCT005 BKN100
     FM111700 34011KT P6SM FEW005 BKN050
     FM112300 31006KT P6SM SKC
     FM120200 26005KT P6SM FEW090
     FM121100 23005KT P6SM SCT050=

USA.gov is the U.S. government's official web portal to all federal, state and local government web resources and services.